Regional Weather Roundup
Issued by NWS Bismarck, ND

Home | Current Version | Previous Version | Text Only | Print | Product List | Glossary On
Versions: 1 2 3 4 5 6 7 8 9 10 11 12 13 14 15 16 17 18 19 20 21 22 23 24 25 26 27 28 29 30 31 32 33 34 35 36 37 38 39 40 41 42 43 44 45 46 47 48 49 50
000
ASUS43 KBIS 220020
RWRBIS

NWR BROADCAST TEXT
NATIONAL WEATHER SERVICE BISMARCK ND
700 PM CDT SUN SEP 21 2014

NOTE: "FAIR" INDICATES FEW OR NO CLOUDS BELOW 12,000 FEET WITH NO
SIGNIFICANT WEATHER AND/OR OBSTRUCTIONS TO VISIBILITY.


CITY           SKY/WX    TMP DP  RH WIND       PRES   REMARKS
WILLISTON      CLEAR     71  34  25 S3        30.18F
MINOT          CLEAR     68  40  35 SW6       30.18S
MINOT AFB      CLEAR     70  42  35 W5        30.17S
BISMARCK       CLEAR     71  43  36 CALM      30.22S
DICKINSON      CLEAR     70  38  31 NE3       30.21F
GARRISON         N/A     66  44  45 SW8       30.20S
HETTINGER ARPT CLEAR     70  35  27 SE3       30.24F
JAMESTOWN      CLEAR     64  48  56 W5        30.20S
BEACH            N/A     68  36  30 SE3       30.21F
CARRINGTON     FAIR      63  46  55 W3        30.21F
CROSBY         FAIR      66  37  34 SW6       30.17F
HARVEY         FAIR      64  45  48 N3        30.20S
HAZEN          FAIR      66  41  39 NE3       30.21F
LINTON         FAIR      66  45  45 CALM      30.22F
MANDAN         FAIR      66  43  42 CALM      30.23S
OAKES            N/A     64  50  59 CALM      30.22S
RUGBY          FAIR      64  48  55 CALM      30.19S
STANLEY        FAIR      66  37  34 SW6       30.19F
TIOGA          FAIR      68  34  28 SW6       30.22S
WATFORD CITY   FAIR      70  32  24 CALM      30.17F
$$

CITY           SKY/WX    TMP DP  RH WIND       PRES   REMARKS
GRAND FORKS    PTCLDY    64  49  57 E5        30.19R
GRAND FORKS AF CLEAR     63  52  67 SE5       30.19S
DEVILS LAKE    CLEAR     64  48  55 S7        30.17F
FARGO          CLEAR     62  51  67 E7        30.20S
CANDO          FAIR      64  46  52 W5        30.18S
CAVALIER       FAIR      63  52  67 SE5       30.16F
GRAFTON        FAIR      59  54  82 SE6       30.17F
GWINNER        CLEAR     64  46  52 CALM      30.23R
LANGDON        FAIR      63  46  55 W5        30.17S
ROLLA          FAIR      61  46  59 W6        30.20R
WALHALLA         N/A     66  48  52 CALM      30.16S
$$

CITY           SKY/WX    TMP DP  RH WIND       PRES   REMARKS
ABERDEEN       CLEAR     68  48  48 CALM      30.23R
MOBRIDGE       CLEAR     69  48  47 E5        30.21F
BUFFALO          N/A     70  35  27 E7        30.17F
RAPID CITY     CLEAR     69  39  33 SE9       30.26R
GLASGOW        SUNNY     73  37  27 SE9       30.14F
SIDNEY         CLEAR    N/A N/A N/A S5        30.18F
WOLF POINT     CLEAR     76  39  26 CALM      30.15F
MILES CITY     CLEAR     76  38  25 SE9       30.15F
BAKER          CLEAR     72  35  25 SE7       30.22F
$$

CITY           SKY/WX    TMP DP  RH WIND       PRES   REMARKS
BILLINGS       MOSUNNY   76  42  29 E10       30.13F
GREAT FALLS    SUNNY     75  47  36 NE10      30.05F
REGINA         CLEAR     70  45  40 W6        30.13F
ESTEVAN        CLEAR     68  45  42 SW3       30.17F
$$



USA.gov is the U.S. government's official web portal to all federal, state and local government web resources and services.